Location: Unspecified
(52.5210°N, 0.0000°E)
Time: 04:53:05
(UTC+00:00)

DAPP 3526 - Visible Passes

Search period start: 04 April 2026 00:00
Search period end: 14 April 2026 00:00
Orbit: 726 x 777 km, 98.5° (Epoch: 29 March)

Date Brightness Start Highest point End Pass type
(mag) Time Alt. Az. Time Alt. Az. Time Alt. Az.
4 Apr 8.2 19:39:48 10° NE 19:42:19 13° E 19:43:37 12° E visible
4 Apr 6.4 21:16:42 10° NNE 21:21:54 77° ESE 21:23:32 44° S visible
4 Apr 8.7 22:56:12 10° N 23:00:05 22° NW 23:03:27 12° W visible
5 Apr 7.1 20:36:09 10° NNE 20:40:57 37° E 20:42:25 31° SE visible
5 Apr 7.7 22:14:53 10° N 22:19:42 40° WNW 22:22:20 23° WSW visible
6 Apr 7.9 19:56:12 10° NE 19:59:46 18° E 20:01:18 16° ESE visible
6 Apr 6.5 21:33:54 10° NNE 21:39:05 80° WNW 21:41:13 36° SSW visible
6 Apr 9.0 23:13:46 10° NNW 23:17:03 17° NW 23:20:18 10° W visible
7 Apr 6.7 20:53:12 10° NNE 20:58:14 50° E 21:00:06 34° SSE visible
7 Apr 8.1 22:32:16 10° N 22:36:45 31° WNW 22:40:01 16° WSW visible
8 Apr 7.6 20:12:56 10° NE 20:17:09 25° E 20:18:58 20° ESE visible
8 Apr 7.0 21:51:09 10° N 21:56:14 60° WNW 21:58:53 27° SW visible
8 Apr 9.2 23:31:31 10° NNW 23:33:57 14° NW 23:36:24 10° WNW visible
9 Apr 8.3 19:33:58 10° ENE 19:35:48 12° E 19:37:37 10° ESE visible
9 Apr 6.4 21:10:19 10° NNE 21:15:29 69° ESE 21:17:46 33° S visible
9 Apr 8.6 22:49:41 10° N 22:53:46 24° WNW 22:57:41 10° WSW visible
10 Apr 7.2 20:29:51 10° NNE 20:34:30 33° E 20:36:37 24° SE visible
10 Apr 7.5 22:08:27 10° N 22:13:21 45° WNW 22:16:33 20° SW visible
10 Apr 9.4 23:49:55 10° NW 23:50:50 10° NW 23:51:46 10° NW visible
11 Apr 8.1 19:50:04 10° NE 19:53:15 16° E 19:55:30 13° ESE visible
11 Apr 6.4 21:27:30 10° NNE 21:32:41 89° WNW 21:35:25 29° SSW visible
11 Apr 8.9 23:07:13 10° N 23:10:44 19° NW 23:14:13 10° W visible
12 Apr 6.8 20:46:51 10° NNE 20:51:48 45° E 20:54:16 26° SSE visible
12 Apr 8.0 22:25:47 10° N 22:30:24 34° WNW 22:34:12 14° WSW visible
13 Apr 7.7 20:06:42 10° NE 20:10:39 22° E 20:13:08 16° SE visible
13 Apr 6.8 21:44:43 10° N 21:49:50 67° WNW 21:53:03 23° SSW visible
13 Apr 9.1 23:24:53 10° NNW 23:27:39 15° NW 23:30:25 10° W visible
